Location: Mannheim
(49.4880°N, 8.4650°E)
Time: 09:44:02
(UTC+02:00)

ISS - Pass Details

Date: 28 June 2022
Orbit: 415 x 421 km, 51.6° (Epoch: 25 June)

Event Time Altitude Azimuth Distance (km) Brightness Sun altitude
Rises 13:03:19 0° 257° (WSW) 2,446 0.1 63.3°
Enters shadow 13:40:34 -63° 128° (SE) 11,795 3.1 63.7°
Exits shadow 14:16:24 -44° 336° (NNW) 9,514 2.6 62.2°
Maximum altitude 04:18:35 18° 138° (SE) 1,184 -1.6 -8.1°
